Weather in Santa Cruz

Philippines     14°16′44″N   121°24′57″E
temp.,
°C
wind,
m/s
gust,
m/s
humid.,
%
clouds,
%
prec.,
mm/h
press.,
hPa
HPBL,
m
23 october, sat
sat2323:00+23ene299232 0.2 1014409
02:00+23ene2894100 0.4 1012408
05:00+24ene3992100 0.1 1012612
08:00+26ene4108399 0.4 1013872
11:00+27ene497984 0.6 10131000
14:00+25ene41092100 3.3 1011900
17:00+23e3997100 2.4 1011714
20:00+23e3897100 6.0 1014454
24 october, sun
sun2423:00+23e399694 1.6 1013562
02:00+22ese2798100 3.2 1011363
05:00+22e289692 1.0 1011346
08:00+23e31094100 1.3 1013721
11:00+24ene31092100 0.7 1012862
14:00+23ene31195100 2.6 1010749
17:00+23ene31096100 1.6 1010670
20:00+23ene31097100 3.6 1012699
25 october, mon
mon2523:00+23e3998100 2.4 1012611
02:00+22e3997100 3.2 1010537
05:00+23e3897100 4.1 1010479
08:00+22e3998100 7.0 1012537
11:00+23ene389597 0.7 1011532
14:00+26ene467980 1.5 1009927
17:00+24ene3992100 0.7 1010661
20:00+23e399673 1.5 1012540
26 october, tue
tue2623:00+23e289699 0.9 1012483
02:00+23e279765 1.7 1010410
05:00+23ene279673 0.4 1010392
08:00+25ene388991 0.9 1012645
11:00+26ene468697 1.6 1012825
14:00+27ene467998 3.1 1009883
17:00+24ene389066 0.5 1010602
20:00+23e2894100 0.6 1012387
27 october, wed
wed2723:00+23e269686 0.1 1012208
02:00+22e12968 0.1 101060
05:00+22ese129614 0.0 101051
08:00+26ene378118 0.1 1012819
11:00+28ene467698 0.7 10111063
14:00+27ene4778100 2.1 1009961
17:00+25ene389066 0.5 1010625
20:00+23e279578 0.6 1012323